UNISAT-6

Last updated on Thu Oct 30 2025 00:03:10 GMT+0000 (Coordinated Universal Time)

1 40012U 14033C 25302.38936135 .00005451 00000+0 61163-3 0 9992 2 40012 97.7599 94.8767 0047835 108.4390 252.2034 14.86350863611851
UTC large
Height (km)
Speed (km/s)
/
Latitude / Longitude
Inclination (degrees)
Orbital Period (minutes)
Azimuth
Elevation
Range (km)
Doppler Factor

Next 0 passes for location: London (51.5072 / 0.1276)

Sorry there are no passes over London.